Precipitable_Water
0.56 0.54 0.53 0.53 0.53 0.52 0.52 0.51 0.51 0.51 0.51 0.50 0.50 0.50 0.50 0.49 0.47 0.48 0.47 0.47 0.47 0.48 0.49 0.49 0.47 0.46 0.44 0.42 0.42 0.41 0.40 0.31 0.26 0.25 0.23 0.33 0.43 0.49 0.47 0.47 0.38 0.38 0.35 0.27 0.23 0.21 0.19 0.19 0.18 0.20 0.19 0.17 0.17 0.17 0.22 0.22 0.24 0.21 0.14 0.13 0.11 0.13 0.12 0.15 0.14 0.16 0.19 0.16 0.18 0.19 0.20 0.18 0.16 0.20 0.22 0.25 0.23 0.24 0.24 0.24 0.26 0.29 0.29 0.31 0.34 0.37 0.38 0.54
0.56 0.54 0.53 0.53 0.53 0.53 0.52 0.51 0.52 0.51 0.51 0.50 0.50 0.49 0.49 0.48 0.48 0.47 0.47 0.47 0.48 0.48 0.50 0.50 0.46 0.45 0.44 0.42 0.42 0.42 0.37 0.29 0.25 0.24 0.24 0.45 0.50 0.47 0.46 0.44 0.38 0.35 0.34 0.23 0.20 0.19 0.17 0.16 0.18 0.18 0.16 0.13 0.20 0.14 0.20 0.16 0.22 0.15 0.13 0.12 0.10 0.13 0.14 0.17 0.18 0.19 0.18 0.18 0.19 0.20 0.21 0.20 0.18 0.20 0.23 0.19 0.20 0.22 0.21 0.23 0.24 0.24 0.27 0.31 0.34 0.37 0.39 0.53
0.56 0.54 0.53 0.54 0.54 0.53 0.52 0.52 0.52 0.51 0.50 0.50 0.49 0.48 0.47 0.47 0.48 0.47 0.47 0.48 0.48 0.48 0.49 0.48 0.47 0.46 0.43 0.43 0.44 0.43 0.32 0.28 0.24 0.20 0.29 0.47 0.45 0.45 0.44 0.41 0.38 0.35 0.30 0.24 0.24 0.22 0.19 0.18 0.18 0.17 0.16 0.13 0.16 0.13 0.16 0.14 0.17 0.15 0.12 0.10 0.10 0.15 0.16 0.18 0.19 0.18 0.20 0.20 0.19 0.19 0.21 0.21 0.21 0.21 0.25 0.19 0.19 0.21 0.19 0.20 0.22 0.22 0.23 0.26 0.31 0.38 0.43 0.49
0.56 0.53 0.53 0.53 0.53 0.53 0.53 0.53 0.52 0.51 0.50 0.49 0.48 0.46 0.46 0.47 0.47 0.47 0.47 0.48 0.48 0.49 0.49 0.47 0.47 0.45 0.44 0.43 0.45 0.44 0.30 0.21 0.17 0.24 0.35 0.45 0.46 0.42 0.41 0.41 0.39 0.37 0.35 0.30 0.28 0.24 0.23 0.21 0.19 0.17 0.15 0.14 0.15 0.17 0.12 0.16 0.12 0.14 0.11 0.08 0.10 0.15 0.14 0.17 0.19 0.20 0.21 0.21 0.20 0.20 0.22 0.20 0.22 0.23 0.22 0.21 0.18 0.19 0.21 0.23 0.23 0.23 0.24 0.27 0.31 0.37 0.42 0.46
0.56 0.55 0.52 0.54 0.54 0.53 0.53 0.53 0.51 0.51 0.49 0.48 0.47 0.46 0.45 0.46 0.47 0.47 0.47 0.48 0.50 0.49 0.49 0.48 0.46 0.46 0.45 0.46 0.45 0.40 0.28 0.13 0.18 0.31 0.41 0.45 0.42 0.41 0.41 0.41 0.40 0.36 0.35 0.32 0.28 0.25 0.23 0.20 0.18 0.17 0.16 0.12 0.15 0.14 0.14 0.17 0.18 0.15 0.13 0.14 0.14 0.16 0.14 0.19 0.20 0.22 0.22 0.23 0.21 0.21 0.19 0.19 0.25 0.24 0.22 0.21 0.17 0.17 0.21 0.24 0.26 0.26 0.27 0.28 0.30 0.36 0.42 0.43
0.57 0.56 0.56 0.55 0.53 0.54 0.53 0.52 0.52 0.50 0.48 0.46 0.46 0.46 0.46 0.45 0.46 0.47 0.48 0.48 0.50 0.50 0.48 0.48 0.47 0.45 0.46 0.47 0.43 0.34 0.21 0.10 0.28 0.32 0.44 0.43 0.43 0.41 0.42 0.41 0.40 0.38 0.36 0.31 0.27 0.25 0.22 0.19 0.18 0.15 0.14 0.14 0.13 0.11 0.16 0.16 0.20 0.11 0.16 0.17 0.18 0.18 0.16 0.21 0.21 0.22 0.23 0.22 0.21 0.20 0.22 0.23 0.21 0.21 0.23 0.22 0.20 0.22 0.26 0.27 0.28 0.29 0.30 0.31 0.33 0.37 0.38 0.41
0.57 0.56 0.56 0.55 0.54 0.53 0.52 0.53 0.50 0.48 0.47 0.46 0.46 0.45 0.45 0.46 0.46 0.47 0.48 0.49 0.50 0.50 0.48 0.47 0.46 0.48 0.46 0.44 0.39 0.28 0.20 0.20 0.33 0.43 0.45 0.44 0.42 0.40 0.41 0.40 0.38 0.35 0.34 0.30 0.27 0.23 0.20 0.18 0.18 0.16 0.15 0.14 0.15 0.15 0.17 0.16 0.19 0.16 0.13 0.18 0.18 0.20 0.19 0.22 0.22 0.24 0.23 0.22 0.21 0.23 0.25 0.20 0.21 0.18 0.24 0.22 0.24 0.26 0.29 0.31 0.31 0.33 0.33 0.34 0.32 0.35 0.36 0.38
0.58 0.57 0.55 0.54 0.53 0.51 0.52 0.52 0.51 0.48 0.47 0.47 0.46 0.46 0.45 0.46 0.46 0.47 0.48 0.50 0.50 0.48 0.49 0.48 0.48 0.47 0.46 0.33 0.23 0.22 0.21 0.20 0.36 0.48 0.45 0.43 0.40 0.38 0.42 0.37 0.35 0.33 0.30 0.29 0.27 0.23 0.21 0.18 0.16 0.19 0.16 0.13 0.16 0.15 0.18 0.17 0.18 0.15 0.14 0.19 0.20 0.21 0.22 0.23 0.24 0.23 0.24 0.23 0.24 0.24 0.21 0.20 0.22 0.22 0.24 0.21 0.25 0.28 0.29 0.32 0.33 0.33 0.34 0.34 0.33 0.33 0.37 0.39
0.60 0.57 0.56 0.56 0.54 0.54 0.50 0.52 0.52 0.49 0.47 0.46 0.47 0.46 0.46 0.46 0.47 0.47 0.48 0.49 0.49 0.48 0.48 0.49 0.49 0.47 0.47 0.30 0.20 0.17 0.18 0.35 0.46 0.47 0.44 0.40 0.39 0.39 0.39 0.32 0.35 0.31 0.28 0.31 0.30 0.27 0.22 0.19 0.19 0.19 0.14 0.15 0.19 0.16 0.18 0.15 0.13 0.18 0.18 0.21 0.21 0.21 0.23 0.24 0.24 0.24 0.24 0.25 0.25 0.22 0.21 0.22 0.24 0.27 0.22 0.23 0.26 0.29 0.31 0.31 0.32 0.33 0.33 0.33 0.33 0.34 0.35 0.37
0.62 0.60 0.59 0.58 0.57 0.56 0.53 0.52 0.52 0.50 0.49 0.49 0.47 0.47 0.48 0.46 0.47 0.48 0.48 0.49 0.48 0.48 0.48 0.49 0.48 0.47 0.35 0.24 0.21 0.14 0.23 0.50 0.52 0.46 0.44 0.41 0.40 0.37 0.36 0.35 0.34 0.31 0.27 0.30 0.30 0.27 0.22 0.21 0.20 0.22 0.21 0.19 0.21 0.17 0.20 0.17 0.16 0.22 0.21 0.21 0.21 0.22 0.23 0.25 0.23 0.24 0.25 0.24 0.26 0.21 0.21 0.22 0.26 0.24 0.18 0.27 0.30 0.31 0.31 0.31 0.33 0.33 0.32 0.34 0.35 0.36 0.36 0.36
0.66 0.63 0.61 0.60 0.57 0.57 0.55 0.52 0.51 0.51 0.49 0.49 0.49 0.49 0.49 0.49 0.47 0.48 0.49 0.48 0.47 0.49 0.49 0.49 0.49 0.40 0.30 0.25 0.17 0.14 0.49 0.50 0.50 0.45 0.42 0.41 0.37 0.34 0.33 0.36 0.36 0.31 0.30 0.30 0.29 0.30 0.27 0.25 0.25 0.24 0.21 0.18 0.20 0.19 0.20 0.20 0.24 0.23 0.23 0.22 0.22 0.23 0.24 0.25 0.25 0.25 0.26 0.24 0.26 0.24 0.22 0.25 0.25 0.25 0.21 0.25 0.30 0.32 0.30 0.31 0.32 0.33 0.33 0.34 0.36 0.37 0.38 0.38
0.70 0.67 0.65 0.62 0.60 0.57 0.56 0.54 0.53 0.52 0.51 0.50 0.50 0.49 0.49 0.49 0.50 0.48 0.49 0.48 0.48 0.49 0.50 0.50 0.48 0.42 0.31 0.25 0.20 0.19 0.51 0.54 0.51 0.45 0.42 0.40 0.35 0.36 0.38 0.40 0.38 0.35 0.32 0.28 0.30 0.32 0.32 0.29 0.27 0.24 0.17 0.24 0.17 0.22 0.21 0.26 0.24 0.24 0.24 0.18 0.21 0.23 0.22 0.25 0.23 0.25 0.27 0.24 0.28 0.27 0.23 0.21 0.21 0.18 0.24 0.28 0.30 0.31 0.30 0.30 0.31 0.32 0.34 0.35 0.36 0.37 0.38 0.39
0.72 0.71 0.68 0.66 0.63 0.60 0.57 0.56 0.55 0.55 0.54 0.52 0.51 0.49 0.49 0.49 0.48 0.49 0.49 0.47 0.49 0.49 0.50 0.51 0.47 0.42 0.26 0.17 0.21 0.37 0.51 0.55 0.52 0.46 0.43 0.42 0.40 0.41 0.41 0.43 0.41 0.38 0.35 0.32 0.31 0.35 0.34 0.32 0.30 0.24 0.25 0.23 0.22 0.18 0.25 0.28 0.25 0.25 0.24 0.21 0.20 0.20 0.19 0.24 0.27 0.27 0.26 0.26 0.29 0.28 0.14 0.16 0.19 0.23 0.27 0.29 0.30 0.30 0.29 0.29 0.30 0.32 0.33 0.34 0.36 0.36 0.38 0.40
0.74 0.71 0.70 0.68 0.65 0.63 0.60 0.58 0.57 0.57 0.56 0.54 0.52 0.51 0.49 0.49 0.50 0.49 0.49 0.48 0.50 0.51 0.52 0.50 0.47 0.34 0.23 0.19 0.36 0.42 0.49 0.55 0.56 0.47 0.43 0.44 0.38 0.36 0.41 0.43 0.42 0.40 0.39 0.35 0.35 0.37 0.34 0.34 0.32 0.29 0.30 0.24 0.21 0.32 0.25 0.26 0.28 0.20 0.23 0.24 0.18 0.16 0.16 0.24 0.25 0.27 0.23 0.29 0.29 0.28 0.14 0.15 0.19 0.22 0.26 0.28 0.29 0.28 0.26 0.28 0.29 0.30 0.32 0.33 0.34 0.35 0.36 0.38
0.74 0.73 0.70 0.68 0.68 0.65 0.63 0.61 0.60 0.59 0.58 0.56 0.54 0.53 0.52 0.49 0.50 0.50 0.51 0.49 0.52 0.54 0.52 0.52 0.43 0.27 0.19 0.21 0.36 0.45 0.50 0.51 0.46 0.46 0.49 0.40 0.36 0.34 0.36 0.41 0.40 0.40 0.40 0.38 0.35 0.36 0.35 0.34 0.31 0.25 0.23 0.29 0.28 0.24 0.20 0.21 0.23 0.23 0.17 0.14 0.19 0.16 0.17 0.22 0.27 0.26 0.21 0.26 0.29 0.25 0.16 0.15 0.19 0.22 0.26 0.28 0.29 0.28 0.26 0.27 0.28 0.29 0.30 0.31 0.33 0.34 0.35 0.37
0.76 0.74 0.72 0.71 0.68 0.68 0.65 0.65 0.63 0.61 0.59 0.58 0.55 0.54 0.54 0.54 0.50 0.51 0.53 0.53 0.55 0.55 0.54 0.39 0.33 0.29 0.21 0.16 0.25 0.49 0.41 0.28 0.35 0.50 0.52 0.46 0.38 0.33 0.40 0.38 0.40 0.39 0.39 0.37 0.41 0.38 0.37 0.34 0.26 0.26 0.25 0.26 0.22 0.20 0.19 0.18 0.18 0.21 0.16 0.14 0.14 0.17 0.17 0.18 0.23 0.26 0.26 0.25 0.26 0.23 0.15 0.19 0.18 0.23 0.25 0.28 0.28 0.28 0.26 0.27 0.28 0.29 0.30 0.32 0.33 0.34 0.34 0.36
0.77 0.76 0.75 0.73 0.72 0.70 0.69 0.68 0.65 0.63 0.61 0.59 0.57 0.57 0.56 0.55 0.54 0.53 0.54 0.55 0.51 0.53 0.45 0.29 0.31 0.29 0.15 0.23 0.38 0.26 0.25 0.33 0.45 0.45 0.48 0.48 0.43 0.39 0.38 0.36 0.34 0.35 0.38 0.38 0.37 0.36 0.35 0.29 0.31 0.27 0.28 0.22 0.23 0.21 0.15 0.13 0.13 0.15 0.19 0.14 0.16 0.13 0.15 0.13 0.20 0.25 0.25 0.23 0.20 0.23 0.18 0.17 0.20 0.23 0.25 0.27 0.28 0.27 0.26 0.26 0.27 0.29 0.30 0.31 0.32 0.33 0.34 0.34
0.85 0.79 0.77 0.76 0.74 0.74 0.72 0.69 0.68 0.64 0.63 0.59 0.58 0.56 0.54 0.56 0.58 0.52 0.49 0.48 0.50 0.44 0.37 0.42 0.37 0.23 0.18 0.27 0.21 0.22 0.36 0.35 0.37 0.41 0.45 0.47 0.44 0.41 0.38 0.33 0.34 0.34 0.34 0.31 0.35 0.28 0.32 0.26 0.29 0.20 0.22 0.21 0.21 0.19 0.13 0.10 0.11 0.12 0.14 0.13 0.13 0.16 0.16 0.14 0.14 0.21 0.22 0.23 0.20 0.21 0.19 0.17 0.19 0.22 0.24 0.27 0.28 0.27 0.25 0.26 0.27 0.27 0.29 0.30 0.31 0.32 0.33 0.34
0.97 0.89 0.81 0.77 0.76 0.74 0.73 0.71 0.68 0.68 0.63 0.60 0.58 0.60 0.58 0.59 0.54 0.50 0.39 0.37 0.26 0.22 0.17 0.20 0.18 0.13 0.11 0.17 0.28 0.35 0.38 0.42 0.44 0.40 0.37 0.40 0.42 0.42 0.40 0.39 0.35 0.30 0.25 0.24 0.27 0.26 0.29 0.25 0.26 0.20 0.15 0.17 0.17 0.17 0.14 0.14 0.16 0.15 0.15 0.14 0.15 0.13 0.13 0.14 0.18 0.23 0.23 0.19 0.18 0.18 0.15 0.16 0.18 0.19 0.21 0.23 0.26 0.25 0.25 0.26 0.26 0.26 0.28 0.29 0.30 0.31 0.32 0.32
1.08 0.98 0.91 0.84 0.79 0.76 0.74 0.72 0.71 0.67 0.65 0.57 0.54 0.49 0.40 0.28 0.27 0.25 0.34 0.32 0.23 0.21 0.20 0.23 0.22 0.23 0.25 0.29 0.29 0.39 0.48 0.47 0.32 0.37 0.39 0.43 0.39 0.36 0.35 0.34 0.31 0.30 0.25 0.19 0.23 0.26 0.29 0.19 0.15 0.14 0.14 0.16 0.19 0.20 0.20 0.20 0.20 0.19 0.19 0.17 0.16 0.15 0.15 0.18 0.20 0.24 0.27 0.21 0.18 0.18 0.18 0.18 0.18 0.19 0.20 0.22 0.24 0.23 0.23 0.22 0.23 0.24 0.25 0.27 0.28 0.29 0.31 0.32
1.17 1.10 1.01 0.94 0.87 0.81 0.76 0.74 0.72 0.70 0.66 0.59 0.53 0.34 0.24 0.23 0.19 0.17 0.23 0.26 0.30 0.28 0.25 0.29 0.25 0.22 0.21 0.31 0.36 0.36 0.28 0.31 0.37 0.35 0.37 0.47 0.40 0.34 0.30 0.29 0.25 0.20 0.22 0.25 0.23 0.31 0.27 0.18 0.16 0.17 0.18 0.20 0.22 0.24 0.23 0.22 0.22 0.19 0.18 0.17 0.16 0.17 0.13 0.18 0.19 0.24 0.26 0.20 0.17 0.19 0.18 0.17 0.17 0.19 0.20 0.22 0.22 0.20 0.20 0.21 0.22 0.23 0.24 0.26 0.27 0.28 0.29 0.30
1.20 1.17 1.11 1.04 0.97 0.90 0.84 0.77 0.74 0.73 0.69 0.59 0.49 0.31 0.31 0.31 0.35 0.39 0.31 0.21 0.26 0.28 0.29 0.29 0.32 0.27 0.34 0.32 0.40 0.40 0.35 0.28 0.29 0.34 0.43 0.41 0.35 0.25 0.29 0.25 0.21 0.17 0.24 0.25 0.24 0.21 0.18 0.15 0.16 0.20 0.24 0.25 0.24 0.24 0.24 0.22 0.20 0.20 0.18 0.17 0.16 0.15 0.18 0.20 0.21 0.23 0.25 0.21 0.16 0.19 0.17 0.16 0.18 0.19 0.20 0.21 0.21 0.21 0.23 0.23 0.22 0.23 0.24 0.25 0.27 0.27 0.28 0.30
1.18 1.19 1.17 1.14 1.07 1.00 0.93 0.87 0.79 0.74 0.64 0.51 0.42 0.39 0.38 0.45 0.56 0.57 0.41 0.28 0.23 0.31 0.29 0.26 0.22 0.23 0.26 0.36 0.37 0.41 0.24 0.21 0.21 0.31 0.36 0.37 0.32 0.28 0.28 0.23 0.21 0.21 0.23 0.23 0.16 0.16 0.14 0.16 0.20 0.25 0.25 0.22 0.22 0.23 0.22 0.22 0.21 0.19 0.18 0.16 0.13 0.17 0.15 0.12 0.20 0.23 0.23 0.21 0.18 0.19 0.17 0.16 0.18 0.19 0.18 0.19 0.20 0.21 0.23 0.24 0.24 0.25 0.25 0.25 0.26 0.28 0.28 0.28
1.24 1.20 1.20 1.18 1.15 1.09 1.02 0.95 0.91 0.74 0.60 0.54 0.48 0.43 0.58 0.63 0.56 0.49 0.32 0.22 0.20 0.24 0.27 0.29 0.27 0.24 0.22 0.21 0.32 0.31 0.23 0.23 0.24 0.25 0.44 0.35 0.27 0.33 0.27 0.24 0.22 0.22 0.19 0.21 0.19 0.16 0.14 0.20 0.27 0.24 0.24 0.22 0.19 0.21 0.21 0.19 0.17 0.20 0.19 0.17 0.16 0.16 0.17 0.16 0.16 0.21 0.23 0.24 0.24 0.20 0.17 0.15 0.15 0.14 0.14 0.18 0.22 0.22 0.22 0.24 0.24 0.25 0.26 0.27 0.29 0.30 0.30 0.29
1.32 1.29 1.24 1.23 1.21 1.17 1.09 1.04 0.85 0.74 0.67 0.58 0.51 0.59 0.66 0.67 0.59 0.54 0.31 0.26 0.24 0.23 0.37 0.31 0.34 0.29 0.28 0.41 0.38 0.26 0.27 0.27 0.26 0.32 0.39 0.36 0.30 0.28 0.26 0.31 0.25 0.20 0.21 0.24 0.23 0.20 0.19 0.23 0.27 0.24 0.23 0.23 0.21 0.19 0.20 0.20 0.17 0.18 0.20 0.19 0.18 0.18 0.17 0.19 0.21 0.19 0.16 0.14 0.21 0.19 0.11 0.11 0.15 0.16 0.15 0.17 0.19 0.18 0.20 0.21 0.20 0.22 0.25 0.27 0.27 0.28 0.30 0.31
1.31 1.33 1.32 1.29 1.26 1.20 1.17 0.91 0.85 0.88 0.72 0.50 0.54 0.63 0.68 0.68 0.68 0.55 0.34 0.25 0.19 0.23 0.31 0.22 0.37 0.25 0.38 0.28 0.33 0.29 0.28 0.20 0.29 0.32 0.37 0.37 0.42 0.30 0.30 0.26 0.27 0.19 0.22 0.23 0.22 0.22 0.21 0.26 0.24 0.22 0.22 0.22 0.21 0.19 0.21 0.21 0.16 0.15 0.16 0.22 0.21 0.21 0.20 0.20 0.18 0.18 0.12 0.09 0.18 0.24 0.12 0.09 0.15 0.13 0.13 0.16 0.17 0.16 0.18 0.20 0.20 0.22 0.24 0.26 0.27 0.28 0.29 0.30
1.28 1.33 1.33 1.32 1.29 1.25 0.99 0.82 1.03 0.94 0.69 0.61 0.64 0.66 0.69 0.64 0.71 0.60 0.31 0.23 0.18 0.25 0.23 0.30 0.31 0.32 0.36 0.34 0.31 0.29 0.14 0.15 0.34 0.37 0.35 0.41 0.31 0.39 0.23 0.23 0.26 0.27 0.29 0.29 0.22 0.17 0.24 0.23 0.23 0.23 0.21 0.20 0.20 0.18 0.21 0.21 0.17 0.14 0.23 0.23 0.23 0.21 0.19 0.19 0.19 0.18 0.14 0.20 0.21 0.24 0.21 0.13 0.11 0.12 0.16 0.18 0.16 0.16 0.17 0.17 0.19 0.22 0.24 0.25 0.27 0.29 0.31 0.33
1.24 1.28 1.33 1.33 1.30 1.26 1.08 1.08 1.00 0.87 0.82 0.83 0.82 0.69 0.70 0.66 0.64 0.55 0.29 0.17 0.15 0.28 0.23 0.29 0.31 0.50 0.37 0.39 0.35 0.24 0.22 0.33 0.20 0.30 0.40 0.42 0.38 0.32 0.25 0.22 0.20 0.21 0.25 0.23 0.12 0.20 0.22 0.19 0.20 0.19 0.19 0.18 0.17 0.19 0.21 0.23 0.17 0.18 0.25 0.25 0.22 0.23 0.21 0.21 0.19 0.18 0.19 0.17 0.12 0.18 0.22 0.14 0.11 0.14 0.19 0.19 0.14 0.15 0.16 0.17 0.19 0.21 0.23 0.25 0.27 0.30 0.33 0.36
1.17 1.25 1.31 1.32 1.31 1.30 1.25 1.11 1.03 0.93 1.00 0.97 0.91 0.82 0.73 0.74 0.54 0.33 0.24 0.17 0.23 0.25 0.46 0.26 0.50 0.40 0.38 0.41 0.32 0.31 0.27 0.31 0.21 0.34 0.42 0.42 0.42 0.35 0.22 0.24 0.25 0.25 0.27 0.23 0.15 0.20 0.23 0.23 0.23 0.23 0.20 0.16 0.20 0.23 0.24 0.23 0.18 0.25 0.29 0.28 0.27 0.25 0.24 0.22 0.20 0.19 0.18 0.15 0.09 0.16 0.19 0.11 0.09 0.12 0.14 0.17 0.16 0.14 0.15 0.17 0.19 0.21 0.23 0.25 0.28 0.31 0.35 0.38
1.08 1.15 1.23 1.27 1.27 1.19 1.15 1.16 1.07 1.13 1.15 1.11 0.98 0.90 0.82 0.67 0.45 0.30 0.23 0.17 0.27 0.20 0.30 0.34 0.33 0.29 0.36 0.29 0.29 0.31 0.26 0.29 0.34 0.38 0.40 0.35 0.37 0.38 0.34 0.36 0.27 0.24 0.23 0.27 0.23 0.23 0.27 0.33 0.32 0.25 0.20 0.21 0.24 0.26 0.27 0.26 0.26 0.31 0.29 0.25 0.24 0.24 0.23 0.24 0.23 0.21 0.18 0.10 0.10 0.16 0.19 0.14 0.08 0.11 0.13 0.13 0.13 0.15 0.17 0.18 0.20 0.22 0.24 0.26 0.29 0.32 0.36 0.38
1.01 1.09 1.14 1.21 1.05 1.09 1.11 0.97 1.07 1.19 1.18 1.15 1.02 0.90 0.75 0.56 0.39 0.30 0.22 0.23 0.28 0.28 0.36 0.33 0.29 0.37 0.30 0.26 0.23 0.31 0.30 0.32 0.31 0.34 0.31 0.37 0.34 0.35 0.32 0.28 0.33 0.25 0.23 0.23 0.21 0.24 0.26 0.28 0.25 0.26 0.30 0.28 0.28 0.24 0.30 0.30 0.30 0.28 0.24 0.22 0.21 0.19 0.22 0.20 0.20 0.22 0.13 0.08 0.14 0.17 0.19 0.19 0.10 0.10 0.15 0.17 0.19 0.19 0.18 0.18 0.20 0.22 0.23 0.24 0.28 0.33 0.37 0.40
0.91 1.00 1.09 1.10 1.12 1.15 0.94 0.89 1.11 1.20 1.18 1.15 1.00 0.80 0.63 0.41 0.44 0.30 0.25 0.35 0.25 0.28 0.29 0.29 0.34 0.31 0.29 0.31 0.28 0.28 0.26 0.31 0.34 0.31 0.27 0.28 0.27 0.26 0.25 0.19 0.23 0.17 0.16 0.16 0.14 0.23 0.20 0.21 0.26 0.27 0.32 0.27 0.24 0.22 0.25 0.28 0.29 0.25 0.23 0.21 0.13 0.11 0.13 0.10 0.14 0.10 0.11 0.08 0.14 0.20 0.22 0.18 0.14 0.13 0.17 0.19 0.19 0.19 0.21 0.22 0.22 0.23 0.25 0.26 0.29 0.32 0.37 0.40
0.82 0.88 0.99 1.07 1.10 1.02 1.06 1.13 1.20 1.18 1.18 1.12 0.91 0.70 0.51 0.40 0.29 0.36 0.32 0.33 0.28 0.33 0.32 0.37 0.32 0.32 0.31 0.30 0.27 0.30 0.33 0.25 0.35 0.33 0.33 0.33 0.29 0.27 0.30 0.26 0.25 0.20 0.13 0.16 0.17 0.17 0.17 0.23 0.25 0.26 0.28 0.30 0.26 0.17 0.19 0.19 0.23 0.22 0.18 0.16 0.13 0.10 0.10 0.07 0.09 0.12 0.11 0.12 0.17 0.18 0.24 0.14 0.14 0.17 0.20 0.19 0.20 0.22 0.23 0.24 0.24 0.25 0.26 0.28 0.30 0.33 0.36 0.38
0.77 0.81 0.81 0.93 1.02 1.05 1.10 1.14 1.15 1.17 1.07 1.03 0.83 0.63 0.52 0.37 0.33 0.43 0.37 0.37 0.36 0.45 0.43 0.36 0.37 0.36 0.33 0.27 0.28 0.31 0.26 0.32 0.32 0.31 0.33 0.29 0.29 0.24 0.27 0.30 0.29 0.23 0.20 0.20 0.16 0.17 0.13 0.12 0.18 0.22 0.18 0.28 0.26 0.20 0.18 0.17 0.20 0.21 0.23 0.19 0.14 0.12 0.09 0.07 0.08 0.07 0.08 0.08 0.14 0.21 0.16 0.11 0.10 0.11 0.21 0.22 0.22 0.24 0.24 0.25 0.26 0.27 0.28 0.30 0.33 0.35 0.36 0.37
0.73 0.74 0.78 0.84 0.90 1.00 1.05 1.09 1.11 1.12 1.04 0.90 0.69 0.55 0.39 0.36 0.41 0.39 0.38 0.39 0.41 0.45 0.40 0.46 0.38 0.35 0.32 0.32 0.34 0.34 0.32 0.26 0.34 0.32 0.30 0.28 0.24 0.25 0.23 0.25 0.30 0.28 0.25 0.17 0.19 0.19 0.15 0.14 0.20 0.27 0.27 0.29 0.23 0.27 0.27 0.24 0.23 0.25 0.26 0.26 0.18 0.13 0.15 0.10 0.11 0.10 0.10 0.11 0.11 0.14 0.12 0.13 0.13 0.20 0.25 0.24 0.24 0.22 0.23 0.25 0.27 0.26 0.28 0.29 0.31 0.32 0.34 0.37
0.65 0.65 0.73 0.69 0.76 0.89 1.00 1.03 1.06 1.04 0.92 0.76 0.58 0.45 0.39 0.41 0.38 0.47 0.44 0.52 0.47 0.43 0.44 0.44 0.42 0.35 0.34 0.33 0.38 0.33 0.39 0.29 0.33 0.32 0.30 0.29 0.27 0.24 0.26 0.27 0.26 0.28 0.22 0.18 0.20 0.16 0.18 0.15 0.23 0.26 0.30 0.28 0.28 0.30 0.28 0.27 0.15 0.22 0.25 0.17 0.16 0.24 0.19 0.16 0.15 0.17 0.17 0.14 0.10 0.13 0.13 0.14 0.19 0.19 0.20 0.20 0.20 0.21 0.24 0.25 0.26 0.26 0.27 0.29 0.30 0.32 0.36 0.38
0.50 0.58 0.52 0.64 0.70 0.88 0.96 1.00 1.00 0.93 0.83 0.66 0.51 0.42 0.48 0.51 0.55 0.54 0.57 0.52 0.51 0.51 0.46 0.36 0.38 0.36 0.34 0.33 0.35 0.37 0.38 0.39 0.37 0.34 0.28 0.34 0.28 0.29 0.26 0.26 0.30 0.29 0.27 0.22 0.21 0.25 0.16 0.16 0.27 0.25 0.23 0.31 0.35 0.34 0.33 0.31 0.28 0.26 0.18 0.19 0.28 0.30 0.27 0.19 0.12 0.15 0.14 0.11 0.10 0.14 0.10 0.10 0.12 0.09 0.18 0.19 0.20 0.21 0.22 0.23 0.25 0.26 0.28 0.29 0.30 0.33 0.36 0.39
0.41 0.44 0.48 0.52 0.63 0.83 0.93 0.97 0.92 0.84 0.73 0.59 0.45 0.44 0.54 0.50 0.61 0.59 0.62 0.58 0.58 0.55 0.47 0.43 0.42 0.45 0.38 0.37 0.37 0.39 0.43 0.36 0.37 0.38 0.32 0.36 0.28 0.34 0.30 0.28 0.32 0.30 0.29 0.31 0.22 0.24 0.25 0.17 0.22 0.29 0.29 0.32 0.37 0.35 0.31 0.34 0.35 0.25 0.21 0.34 0.20 0.16 0.15 0.21 0.17 0.11 0.10 0.10 0.10 0.11 0.12 0.12 0.13 0.11 0.15 0.16 0.18 0.20 0.21 0.24 0.25 0.26 0.27 0.28 0.30 0.33 0.38 0.41
0.39 0.35 0.27 0.42 0.61 0.75 0.87 0.95 0.85 0.69 0.56 0.45 0.43 0.41 0.49 0.49 0.59 0.60 0.63 0.63 0.63 0.56 0.47 0.48 0.43 0.46 0.45 0.40 0.41 0.44 0.45 0.37 0.41 0.38 0.33 0.38 0.30 0.35 0.32 0.32 0.30 0.34 0.35 0.34 0.27 0.27 0.28 0.19 0.19 0.31 0.29 0.33 0.34 0.31 0.19 0.23 0.33 0.35 0.34 0.28 0.32 0.23 0.19 0.16 0.17 0.16 0.14 0.11 0.11 0.09 0.11 0.09 0.13 0.14 0.16 0.17 0.20 0.21 0.23 0.24 0.26 0.26 0.27 0.29 0.31 0.35 0.39 0.41
0.27 0.22 0.20 0.47 0.61 0.71 0.82 0.85 0.70 0.60 0.48 0.36 0.39 0.40 0.50 0.46 0.52 0.58 0.60 0.59 0.55 0.54 0.51 0.49 0.51 0.45 0.47 0.45 0.46 0.41 0.46 0.44 0.42 0.41 0.39 0.40 0.36 0.42 0.37 0.41 0.33 0.35 0.39 0.38 0.33 0.36 0.27 0.28 0.18 0.27 0.35 0.34 0.24 0.28 0.21 0.22 0.22 0.25 0.26 0.24 0.26 0.24 0.29 0.26 0.26 0.19 0.15 0.13 0.12 0.11 0.10 0.10 0.13 0.18 0.19 0.20 0.22 0.24 0.26 0.25 0.26 0.27 0.29 0.32 0.35 0.39 0.41 0.44
0.34 0.22 0.23 0.53 0.61 0.69 0.74 0.66 0.54 0.45 0.43 0.45 0.42 0.40 0.46 0.45 0.49 0.51 0.56 0.60 0.57 0.62 0.54 0.51 0.52 0.47 0.48 0.47 0.46 0.51 0.46 0.47 0.46 0.42 0.42 0.41 0.40 0.32 0.42 0.42 0.43 0.40 0.45 0.43 0.39 0.37 0.30 0.29 0.22 0.27 0.28 0.26 0.23 0.31 0.30 0.29 0.28 0.24 0.23 0.21 0.21 0.21 0.20 0.17 0.15 0.26 0.22 0.18 0.15 0.13 0.11 0.12 0.15 0.22 0.22 0.23 0.25 0.26 0.27 0.27 0.28 0.31 0.33 0.36 0.40 0.42 0.44 0.45
0.24 0.11 0.14 0.50 0.67 0.63 0.50 0.36 0.42 0.49 0.43 0.38 0.37 0.41 0.38 0.52 0.49 0.50 0.53 0.59 0.57 0.53 0.61 0.53 0.52 0.50 0.50 0.50 0.50 0.51 0.49 0.47 0.48 0.46 0.47 0.42 0.45 0.41 0.45 0.50 0.48 0.48 0.43 0.39 0.38 0.42 0.39 0.35 0.30 0.26 0.26 0.26 0.30 0.37 0.40 0.39 0.37 0.33 0.30 0.25 0.27 0.26 0.23 0.19 0.14 0.17 0.23 0.22 0.22 0.20 0.16 0.12 0.18 0.22 0.26 0.27 0.28 0.29 0.32 0.32 0.31 0.34 0.37 0.40 0.43 0.44 0.46 0.46
0.20 0.15 0.52 0.49 0.66 0.60 0.41 0.27 0.36 0.39 0.40 0.41 0.45 0.47 0.54 0.50 0.46 0.50 0.50 0.54 0.50 0.55 0.52 0.50 0.48 0.47 0.49 0.48 0.49 0.50 0.50 0.46 0.48 0.45 0.47 0.48 0.47 0.48 0.51 0.52 0.53 0.50 0.48 0.44 0.45 0.46 0.45 0.36 0.30 0.29 0.32 0.35 0.38 0.40 0.41 0.41 0.39 0.34 0.33 0.33 0.30 0.26 0.27 0.25 0.22 0.23 0.20 0.21 0.19 0.19 0.17 0.13 0.19 0.25 0.27 0.28 0.32 0.33 0.35 0.38 0.35 0.39 0.42 0.43 0.44 0.45 0.45 0.46
0.23 0.22 0.24 0.48 0.62 0.65 0.35 0.21 0.20 0.26 0.33 0.38 0.45 0.45 0.51 0.47 0.46 0.44 0.45 0.48 0.48 0.48 0.46 0.47 0.51 0.53 0.47 0.52 0.51 0.46 0.50 0.41 0.48 0.47 0.45 0.49 0.45 0.54 0.54 0.54 0.55 0.49 0.47 0.45 0.41 0.49 0.39 0.40 0.35 0.28 0.27 0.28 0.31 0.35 0.34 0.39 0.38 0.33 0.30 0.33 0.34 0.33 0.33 0.32 0.31 0.31 0.23 0.22 0.20 0.18 0.14 0.13 0.20 0.26 0.29 0.29 0.33 0.32 0.34 0.41 0.38 0.41 0.43 0.44 0.45 0.46 0.46 0.47
0.24 0.28 0.26 0.30 0.47 0.48 0.34 0.34 0.25 0.24 0.25 0.29 0.35 0.37 0.41 0.44 0.49 0.46 0.43 0.42 0.48 0.49 0.49 0.48 0.51 0.53 0.51 0.54 0.49 0.50 0.52 0.48 0.42 0.49 0.48 0.48 0.46 0.53 0.53 0.53 0.55 0.50 0.51 0.53 0.51 0.53 0.42 0.39 0.37 0.29 0.25 0.21 0.19 0.19 0.20 0.23 0.29 0.34 0.36 0.34 0.35 0.33 0.32 0.31 0.26 0.27 0.22 0.22 0.23 0.20 0.18 0.18 0.23 0.27 0.29 0.30 0.32 0.35 0.34 0.43 0.44 0.42 0.44 0.45 0.45 0.45 0.48 0.49
0.20 0.10 0.19 0.19 0.28 0.33 0.37 0.45 0.39 0.31 0.26 0.26 0.28 0.34 0.38 0.36 0.44 0.48 0.48 0.45 0.47 0.47 0.49 0.50 0.53 0.55 0.52 0.51 0.47 0.48 0.47 0.52 0.46 0.43 0.46 0.44 0.45 0.49 0.52 0.54 0.54 0.52 0.53 0.54 0.54 0.52 0.43 0.44 0.40 0.37 0.32 0.28 0.27 0.28 0.35 0.36 0.35 0.30 0.31 0.33 0.34 0.36 0.37 0.35 0.33 0.28 0.22 0.21 0.21 0.23 0.21 0.18 0.21 0.24 0.27 0.29 0.32 0.33 0.36 0.38 0.41 0.42 0.42 0.44 0.45 0.45 0.48 0.50
0.27 0.14 0.16 0.11 0.19 0.22 0.21 0.33 0.38 0.39 0.29 0.31 0.23 0.29 0.29 0.34 0.38 0.43 0.52 0.41 0.48 0.46 0.45 0.47 0.48 0.45 0.46 0.48 0.45 0.45 0.48 0.48 0.51 0.48 0.45 0.43 0.46 0.50 0.56 0.55 0.55 0.55 0.56 0.55 0.56 0.51 0.45 0.40 0.41 0.40 0.38 0.37 0.36 0.34 0.38 0.37 0.33 0.32 0.31 0.31 0.34 0.34 0.35 0.33 0.30 0.24 0.27 0.26 0.21 0.23 0.24 0.24 0.21 0.24 0.28 0.30 0.33 0.35 0.37 0.37 0.41 0.42 0.43 0.42 0.44 0.48 0.51 0.52
0.17 0.21 0.21 0.24 0.14 0.11 0.13 0.16 0.27 0.34 0.37 0.38 0.32 0.33 0.27 0.27 0.31 0.32 0.45 0.48 0.48 0.49 0.41 0.43 0.46 0.46 0.45 0.43 0.44 0.40 0.43 0.44 0.46 0.43 0.46 0.47 0.46 0.49 0.48 0.54 0.52 0.56 0.58 0.56 0.60 0.51 0.45 0.39 0.42 0.43 0.40 0.40 0.40 0.40 0.41 0.40 0.37 0.36 0.36 0.35 0.35 0.36 0.37 0.34 0.32 0.30 0.30 0.27 0.21 0.22 0.27 0.26 0.24 0.26 0.30 0.32 0.34 0.37 0.39 0.42 0.44 0.44 0.43 0.44 0.46 0.48 0.49 0.50
0.26 0.28 0.25 0.31 0.18 0.21 0.19 0.19 0.22 0.24 0.28 0.34 0.34 0.35 0.31 0.30 0.27 0.31 0.33 0.39 0.44 0.44 0.46 0.34 0.37 0.40 0.42 0.46 0.44 0.40 0.42 0.38 0.39 0.45 0.43 0.42 0.43 0.45 0.44 0.48 0.53 0.56 0.55 0.53 0.54 0.56 0.49 0.43 0.43 0.43 0.40 0.40 0.40 0.41 0.42 0.39 0.39 0.39 0.38 0.38 0.39 0.39 0.37 0.36 0.33 0.33 0.33 0.32 0.33 0.31 0.29 0.28 0.28 0.29 0.34 0.36 0.40 0.41 0.43 0.46 0.45 0.44 0.45 0.48 0.48 0.49 0.50 0.50
0.22 0.20 0.20 0.28 0.24 0.21 0.23 0.25 0.23 0.22 0.20 0.27 0.28 0.32 0.33 0.33 0.32 0.36 0.39 0.37 0.33 0.38 0.47 0.39 0.36 0.38 0.39 0.42 0.43 0.40 0.41 0.43 0.41 0.39 0.46 0.45 0.44 0.45 0.43 0.45 0.45 0.53 0.53 0.48 0.50 0.55 0.46 0.40 0.44 0.44 0.41 0.39 0.39 0.42 0.43 0.41 0.40 0.38 0.40 0.41 0.41 0.40 0.38 0.36 0.34 0.34 0.37 0.37 0.36 0.32 0.30 0.29 0.30 0.36 0.38 0.41 0.42 0.44 0.45 0.44 0.44 0.46 0.47 0.47 0.48 0.48 0.49 0.51
0.32 0.33 0.31 0.23 0.18 0.18 0.20 0.21 0.21 0.20 0.17 0.21 0.21 0.26 0.32 0.35 0.32 0.37 0.39 0.48 0.40 0.35 0.40 0.37 0.38 0.38 0.42 0.42 0.42 0.42 0.45 0.46 0.47 0.45 0.47 0.47 0.41 0.47 0.43 0.44 0.50 0.44 0.47 0.46 0.48 0.50 0.50 0.43 0.47 0.46 0.39 0.38 0.39 0.39 0.41 0.44 0.45 0.42 0.41 0.41 0.39 0.36 0.33 0.35 0.35 0.37 0.36 0.33 0.33 0.34 0.32 0.27 0.29 0.39 0.41 0.42 0.43 0.44 0.44 0.45 0.47 0.47 0.49 0.49 0.48 0.49 0.50 0.51
0.38 0.40 0.37 0.28 0.18 0.21 0.18 0.20 0.20 0.21 0.16 0.19 0.19 0.18 0.22 0.28 0.36 0.40 0.35 0.43 0.45 0.48 0.49 0.47 0.43 0.40 0.39 0.40 0.39 0.40 0.43 0.46 0.48 0.51 0.54 0.57 0.58 0.55 0.54 0.52 0.53 0.49 0.46 0.49 0.51 0.48 0.48 0.45 0.43 0.43 0.38 0.37 0.38 0.42 0.43 0.45 0.43 0.38 0.38 0.37 0.36 0.37 0.40 0.42 0.42 0.41 0.38 0.37 0.35 0.32 0.28 0.30 0.34 0.40 0.38 0.40 0.43 0.44 0.46 0.47 0.49 0.49 0.50 0.51 0.50 0.50 0.51 0.52
Wind_Speed
26 25 25 24 23 23 22 22 21 20 20 19 18 18 17 17 16 16 15 15 15 14 14 14 13 13 12 12 11 11 10 11 10 10 11 11 11 11 11 11 10 10 10 10 10 11 10 9 9 9 9 9 8 9 8 8 8 7 7 6 7 7 6 6 6 5 3 3 4 4 4 3 3 3 3 3 3 3 4 5 5 5 6 6 5 5 5 5
27 26 25 25 24 23 23 22 22 21 20 20 19 18 18 17 17 16 16 15 15 15 15 14 14 13 13 12 12 11 11 11 11 11 11 11 11 11 11 11 11 10 11 10 10 11 10 10 9 9 9 9 9 9 9 8 7 7 7 7 8 8 7 6 6 6 4 4 4 4 3 3 3 3 3 3 4 4 4 5 5 6 7 6 6 6 6 6
27 26 26 25 25 24 23 23 22 22 21 20 20 19 19 18 17 17 16 16 16 15 15 15 14 14 13 12 12 11 11 11 11 11 12 11 11 12 12 11 11 10 10 11 11 11 10 10 10 9 9 9 9 9 8 8 8 8 8 8 9 9 7 7 7 7 6 4 4 4 4 4 4 4 4 4 4 4 4 5 5 7 8 7 7 6 6 7
28 27 26 26 25 25 24 23 23 22 22 21 21 20 19 19 18 18 17 17 16 16 16 15 15 14 13 13 12 12 11 10 11 12 12 11 11 12 12 12 11 11 10 10 10 10 10 10 9 9 9 9 9 9 8 8 9 8 8 8 9 8 7 7 8 7 7 5 4 5 4 4 5 4 4 3 3 4 5 6 6 7 8 7 7 7 7 8
28 27 27 26 26 25 25 24 23 23 22 22 21 21 20 19 19 18 18 17 17 17 16 16 15 14 14 13 13 13 11 10 12 13 12 12 12 12 12 12 11 11 11 10 10 10 10 10 9 9 9 9 9 8 9 9 8 8 8 9 9 8 7 7 8 7 7 6 5 5 5 5 5 5 5 4 4 5 6 7 7 8 7 6 6 7 8 8
28 28 27 27 26 26 25 24 24 23 23 22 22 21 21 20 20 19 19 18 18 17 17 16 16 15 14 14 14 13 12 11 12 13 12 12 12 12 12 12 11 11 10 10 10 10 10 9 9 9 9 9 9 9 9 9 8 8 8 9 9 8 7 7 7 7 7 6 6 6 6 5 5 6 6 6 7 7 6 6 6 7 7 7 6 6 8 9
28 28 28 27 27 27 26 25 24 24 23 23 22 22 22 21 20 20 19 19 18 18 17 17 16 15 15 15 14 13 13 12 12 13 13 13 13 13 12 12 12 11 10 10 10 10 10 9 10 10 9 9 10 9 9 9 8 8 8 9 9 8 7 7 7 7 7 7 7 7 6 6 6 6 6 7 10 9 8 7 7 7 7 6 6 7 8 9
28 27 27 27 27 27 26 26 25 24 23 23 23 22 22 21 21 20 20 20 19 19 18 17 17 16 15 15 14 13 13 13 13 13 13 13 13 13 13 12 11 11 10 10 10 11 11 10 11 11 10 10 11 9 9 9 7 7 9 9 8 8 8 8 7 7 7 7 7 7 6 7 7 7 7 9 11 10 9 8 8 8 7 7 7 8 9 10
27 27 27 27 27 26 26 26 25 25 24 23 23 23 22 22 21 21 21 20 20 19 19 18 17 16 16 15 14 14 14 14 14 14 13 14 13 13 13 12 11 11 11 10 10 11 11 11 12 12 11 11 10 9 9 9 9 9 9 9 8 8 8 8 8 7 8 8 7 7 7 8 8 7 8 11 11 10 9 9 8 8 8 9 9 9 10 10
27 27 27 27 27 26 26 26 25 25 24 24 23 23 22 22 22 21 21 21 20 20 19 18 18 17 17 16 14 15 15 15 15 15 14 14 14 13 12 12 12 11 11 10 10 11 11 12 12 12 11 11 10 9 9 9 9 9 8 8 8 8 8 8 9 8 9 9 8 9 8 8 8 7 8 9 8 8 8 9 9 9 10 10 10 10 11 11
27 27 27 27 26 26 26 26 25 25 25 24 24 23 23 22 22 22 21 21 21 21 20 19 18 18 17 16 16 16 15 15 15 15 15 15 14 13 13 12 12 12 12 11 11 11 11 12 12 12 11 11 10 9 9 9 9 9 8 9 8 8 9 9 9 9 9 9 9 9 9 9 8 8 9 9 8 8 9 9 10 10 11 11 11 11 11 12
27 27 27 26 26 26 26 26 26 25 25 24 24 24 23 23 22 22 22 22 22 21 21 20 19 19 18 17 17 18 16 15 16 16 15 15 14 14 13 13 13 12 12 11 11 12 12 13 12 11 11 12 11 10 10 10 9 9 9 9 10 9 9 9 9 10 9 9 9 8 9 10 9 10 11 10 10 10 10 11 11 11 12 12 12 12 12 13
26 27 27 27 26 26 26 26 26 25 25 25 24 24 23 23 23 23 23 22 22 22 21 21 20 20 19 18 18 19 17 16 17 17 16 16 15 14 13 13 13 12 13 12 12 12 12 13 11 11 12 11 11 11 10 9 9 10 9 9 10 9 9 10 9 9 9 9 9 8 10 11 11 13 13 11 11 10 11 12 12 12 13 13 13 13 13 13
26 26 27 27 27 26 26 26 26 26 25 25 24 24 24 24 24 23 23 23 23 22 22 21 21 20 19 19 19 19 19 18 17 18 17 17 16 15 14 13 13 12 12 12 12 12 12 12 11 11 12 11 12 11 10 9 9 10 10 9 9 10 11 11 9 9 9 9 9 8 10 11 12 14 12 11 12 11 13 14 13 13 13 14 14 14 14 14
26 26 26 27 27 27 26 26 26 26 26 25 25 25 24 24 24 24 24 24 24 23 23 22 21 20 20 20 20 19 19 19 18 18 18 18 17 16 15 14 13 13 12 12 12 12 12 12 11 11 12 11 11 11 11 11 10 10 10 10 10 10 11 11 10 10 9 10 9 9 10 11 13 13 12 11 11 11 13 14 14 14 15 15 15 15 15 15
26 26 26 26 27 27 27 26 26 26 26 26 25 25 25 25 25 25 25 24 24 24 23 22 22 21 20 20 21 20 20 20 20 20 19 19 18 17 16 15 14 13 13 13 13 13 12 12 12 12 12 12 11 11 11 11 11 11 11 11 11 10 11 11 10 11 10 10 10 11 11 11 12 12 11 11 10 11 13 15 15 15 15 15 15 16 16 17
26 26 27 26 26 27 27 27 26 26 26 26 26 26 25 25 25 25 25 24 24 24 23 23 22 22 21 21 21 21 21 21 21 21 20 20 19 18 17 16 15 14 14 13 13 13 13 12 13 13 12 12 12 12 11 12 13 12 11 11 12 11 11 11 11 11 10 10 12 12 12 14 14 14 15 13 12 12 14 16 16 16 16 17 17 18 18 18
26 26 27 27 27 27 27 27 27 26 26 26 26 26 26 26 26 25 25 25 24 24 24 24 23 22 23 23 22 21 21 21 21 21 21 21 20 19 18 17 16 16 14 14 14 14 14 14 14 14 13 13 13 12 13 14 13 12 11 11 12 12 12 12 12 12 11 12 13 13 14 16 16 17 18 18 15 15 17 18 18 19 19 20 20 20 20 20
26 27 27 27 27 27 27 27 27 26 26 26 26 26 26 25 25 25 26 25 25 25 25 25 25 23 23 23 23 22 22 22 22 22 22 22 21 20 18 18 17 17 16 16 15 15 15 14 14 14 14 14 15 14 14 15 13 12 12 12 12 12 13 13 14 14 13 13 15 16 16 17 17 17 19 19 16 16 18 19 19 20 21 21 21 22 22 22
26 27 27 27 27 27 27 27 27 26 26 26 26 26 26 26 25 25 26 26 27 27 25 25 26 24 23 22 23 23 23 22 22 23 23 23 22 21 19 18 18 17 17 17 17 16 15 16 16 17 16 16 16 15 14 13 12 11 12 12 13 13 14 14 14 15 14 15 17 17 17 18 17 17 19 20 18 17 19 20 20 21 22 22 23 23 23 23
29 27 27 28 28 27 27 27 27 27 26 27 27 26 27 27 26 26 27 27 28 28 27 26 26 25 24 24 24 24 23 23 23 24 24 24 23 22 21 20 19 18 19 18 18 17 16 18 19 18 17 17 16 15 13 13 12 12 13 13 14 14 15 15 14 16 15 16 17 16 18 20 19 18 19 20 19 19 20 20 21 22 23 23 23 24 24 24
32 30 28 28 28 28 28 27 27 27 27 27 27 27 27 28 27 26 26 26 27 28 28 28 27 27 26 26 25 25 24 23 23 25 25 24 23 23 23 20 20 21 20 19 18 18 18 20 20 18 16 15 14 15 14 14 13 13 14 14 15 15 15 15 15 16 15 16 18 17 19 21 20 20 20 20 20 20 21 21 22 23 23 24 24 24 25 25
34 33 31 30 29 28 28 27 27 27 27 28 28 28 28 28 27 27 26 26 27 28 28 29 29 29 28 27 27 26 25 25 25 26 26 25 24 24 23 21 21 21 21 21 21 20 20 20 20 19 18 15 15 15 14 14 15 15 15 15 16 15 15 16 16 16 16 17 19 19 21 22 21 21 20 20 20 20 21 22 23 23 24 25 25 25 25 26
35 35 34 32 30 30 29 28 27 27 27 28 28 29 28 28 27 27 27 27 28 29 29 30 29 30 30 29 28 27 27 26 26 26 27 26 25 24 24 23 22 22 23 23 22 22 22 21 18 17 18 17 16 17 16 16 17 17 17 16 17 16 17 17 17 17 18 19 19 20 22 22 20 19 18 17 17 18 20 21 23 23 24 25 25 25 25 26
35 36 35 34 33 32 30 28 27 27 27 28 29 29 29 28 28 27 26 27 29 30 30 30 30 30 30 29 29 28 27 28 28 27 27 27 26 24 24 23 23 24 24 22 22 23 24 22 19 17 17 17 17 18 18 18 18 19 19 19 19 18 17 18 17 17 18 19 19 19 20 20 18 18 18 17 18 19 19 19 22 23 23 23 24 25 26 26
33 35 35 35 35 34 31 30 29 28 27 28 29 30 29 29 27 27 26 26 30 32 30 30 30 30 31 30 29 28 27 29 29 28 28 28 27 25 24 24 23 24 24 22 23 24 23 22 20 19 19 19 18 20 21 19 18 19 20 20 20 18 17 18 17 17 18 20 20 18 18 20 21 21 20 19 20 20 19 19 22 23 23 23 24 25 26 26
31 34 35 36 36 36 34 31 30 28 27 27 29 29 29 29 27 27 26 25 30 32 30 31 31 30 30 30 30 28 28 29 27 28 29 29 28 26 25 25 24 24 24 23 24 25 24 22 21 20 20 20 21 22 22 20 19 21 21 18 18 18 18 18 17 18 20 21 21 20 19 22 24 23 20 19 20 20 20 20 22 22 23 23 24 24 24 24
29 31 34 35 36 37 35 34 32 30 29 28 28 28 29 28 27 27 25 25 28 29 29 31 31 31 30 30 30 29 29 28 26 28 29 29 29 27 26 28 26 25 25 24 26 26 24 24 24 23 22 23 24 23 22 20 20 23 21 18 18 18 18 18 17 19 19 21 22 21 19 20 24 24 21 20 20 20 20 21 21 22 23 23 23 23 22 22
30 30 32 33 35 35 35 35 35 33 31 29 27 28 29 28 27 25 24 26 29 28 28 29 30 31 30 30 31 29 29 29 27 28 28 28 29 27 27 29 26 26 26 26 27 27 25 25 25 24 23 25 24 22 22 21 21 22 20 18 18 17 18 17 18 19 18 21 22 21 19 19 24 26 22 20 20 20 20 21 21 22 23 23 22 22 21 20
31 31 32 33 33 33 33 33 35 34 33 31 29 29 28 27 27 25 25 29 30 29 29 29 29 30 29 30 31 30 29 30 29 28 27 28 28 27 27 27 26 26 27 27 27 28 27 26 26 25 25 25 23 21 22 21 21 21 20 19 18 18 19 19 19 18 18 22 23 22 21 19 22 24 21 19 20 19 20 21 21 21 22 22 20 20 19 18
31 32 33 34 34 33 32 31 32 33 33 33 32 31 29 27 27 27 28 29 29 30 30 30 29 29 30 30 30 30 29 30 30 29 28 29 28 27 27 28 26 26 27 29 29 29 28 27 27 27 26 24 22 22 22 21 21 21 21 20 19 20 20 19 20 19 19 22 22 22 21 20 23 24 22 22 23 21 20 19 19 20 22 22 20 19 18 17
32 32 33 35 35 35 33 31 31 31 32 32 32 33 32 29 28 30 31 29 28 30 32 31 31 31 31 30 29 29 29 29 30 30 29 29 30 30 30 30 29 27 28 31 30 29 30 30 29 28 27 27 25 23 23 24 23 22 22 21 19 20 19 20 21 20 21 23 23 22 20 22 27 28 27 27 26 22 20 19 21 22 24 24 22 20 19 18
33 33 33 34 35 36 35 33 32 32 31 31 31 31 32 32 32 34 34 30 28 29 29 30 30 30 30 30 29 29 28 29 30 29 29 29 30 32 31 31 30 29 29 30 29 29 29 30 30 29 30 30 28 27 26 26 25 24 24 22 20 19 19 22 21 20 23 23 22 22 21 24 28 28 27 27 25 23 22 24 25 25 26 27 25 23 22 22
33 33 34 34 35 35 36 35 34 33 31 31 30 29 30 32 34 35 36 33 30 28 27 27 28 28 29 30 30 30 29 30 30 29 29 29 30 32 32 32 32 30 29 28 28 29 29 29 30 30 30 30 30 29 27 25 25 26 25 24 24 23 22 23 21 21 23 22 22 22 22 24 24 24 24 24 25 26 27 28 27 26 27 28 27 26 25 24
33 33 34 35 35 36 36 36 36 35 33 31 29 30 32 32 32 33 35 34 32 30 29 27 26 27 30 30 29 29 29 29 30 29 30 31 31 32 32 32 32 30 29 30 29 29 30 31 31 29 28 28 28 27 25 24 26 26 25 25 27 27 25 23 23 23 22 22 23 24 26 27 27 28 29 28 28 28 27 27 26 26 27 26 27 27 26 25
34 34 34 35 36 36 36 37 37 36 35 32 30 32 34 33 31 30 31 32 32 31 30 28 27 28 30 30 30 30 29 28 28 29 30 31 31 32 31 31 32 32 31 31 30 28 28 30 30 28 27 27 27 26 25 26 26 26 26 28 28 26 24 23 24 24 22 24 26 26 29 31 29 31 32 29 29 27 25 25 25 26 26 24 26 26 25 25
35 35 35 35 36 36 37 38 38 37 35 33 33 34 32 31 31 30 29 29 30 30 30 31 30 30 30 30 31 32 30 29 29 30 30 30 31 32 32 31 31 33 34 31 30 30 28 29 29 27 27 28 27 26 25 26 26 26 28 29 27 25 24 23 24 23 22 25 27 27 30 31 28 29 29 26 27 28 27 27 26 26 26 25 26 25 25 25
35 35 36 37 37 37 37 38 38 38 35 34 36 36 33 32 31 29 28 27 27 28 30 31 30 29 30 30 30 31 31 31 31 31 31 31 32 32 32 31 31 33 34 31 30 31 29 29 29 28 28 28 27 26 27 27 27 28 29 27 25 25 25 24 24 24 24 25 27 28 30 30 29 29 28 27 28 29 28 27 25 26 27 28 27 25 25 25
35 35 36 37 37 38 37 38 38 38 36 36 37 37 35 35 33 31 30 28 27 27 29 30 29 27 28 29 28 29 30 31 31 31 31 31 32 32 32 32 31 32 33 32 32 32 29 29 30 29 29 28 27 29 30 30 28 28 28 27 26 26 26 26 26 25 25 25 26 27 28 30 31 30 28 28 28 27 27 26 25 27 29 27 25 23 23 22
35 35 36 36 36 38 38 37 36 36 37 38 39 37 36 36 35 34 34 32 30 29 30 30 29 29 28 28 27 27 29 29 30 31 31 31 32 32 32 32 30 30 31 32 32 31 30 31 31 29 29 29 30 32 32 32 30 29 30 30 29 28 27 27 28 27 26 25 25 26 28 33 32 28 28 29 28 26 26 27 28 28 27 24 23 22 20 19
35 35 36 36 36 38 38 37 36 36 37 38 39 38 37 36 36 36 37 35 33 32 32 31 31 31 29 28 27 27 26 27 28 29 30 31 31 30 31 31 29 28 28 30 33 32 32 32 32 31 31 32 33 33 32 32 32 32 32 32 33 32 30 28 29 29 28 27 27 26 29 35 34 29 29 29 28 28 28 28 29 28 25 23 21 20 19 19
35 35 35 35 37 39 38 38 38 38 38 39 40 39 38 37 36 37 37 36 35 33 32 33 34 34 32 31 30 28 27 27 27 28 28 30 31 30 29 28 28 27 27 29 31 31 31 31 32 34 35 35 34 32 31 32 32 32 33 33 33 34 33 31 29 29 28 29 29 26 29 36 34 29 30 30 29 29 30 29 28 27 25 21 20 19 19 20
34 35 35 35 37 40 39 38 39 39 40 40 40 39 39 38 38 37 37 37 36 35 34 34 34 35 35 34 32 31 30 30 30 30 30 30 31 30 28 28 28 27 27 28 28 28 29 30 33 34 34 34 34 33 32 32 32 34 35 34 34 35 34 32 30 30 29 30 30 27 30 37 35 30 31 31 30 29 29 29 26 24 24 21 20 22 22 22
33 35 36 36 37 39 39 38 39 41 42 41 40 40 40 40 39 39 39 39 38 36 36 35 34 35 35 34 33 34 33 32 32 33 32 31 30 29 29 30 30 29 29 28 28 28 29 30 31 31 30 31 32 33 34 34 34 36 36 35 35 36 34 32 32 31 30 33 33 30 33 38 35 31 31 31 30 30 29 28 25 23 23 22 22 25 26 25
32 34 36 37 38 38 38 38 39 40 42 43 42 42 41 41 40 41 41 40 40 38 37 37 36 35 34 33 34 35 35 34 33 33 33 32 30 29 30 32 32 32 31 29 28 29 30 31 31 30 30 32 34 34 35 36 35 35 37 36 36 36 35 35 34 32 34 37 37 34 37 40 35 33 33 31 30 31 29 28 25 24 25 26 27 29 29 27
32 33 34 36 38 40 39 38 38 39 41 43 43 43 43 43 41 42 41 41 41 40 39 38 37 36 35 34 34 35 36 36 35 34 34 34 32 30 31 33 33 34 33 30 29 29 29 31 33 34 35 37 38 37 34 32 32 35 38 37 37 37 37 37 35 35 39 39 39 40 42 43 40 36 36 34 32 31 31 29 29 29 30 30 31 31 30 29
33 33 33 33 35 38 40 39 39 39 39 40 41 41 44 45 42 41 42 41 41 41 40 39 39 39 38 37 37 37 37 38 37 37 36 35 33 32 31 32 34 35 32 30 30 30 29 31 34 36 37 39 39 37 34 32 34 37 38 37 37 37 37 38 39 41 41 38 41 44 42 43 45 40 36 36 34 33 32 31 31 32 32 32 32 31 31 31
34 33 34 34 33 35 39 40 40 40 40 39 39 40 42 45 44 43 41 41 41 42 42 41 42 43 42 41 40 39 39 38 38 39 38 36 34 33 32 32 33 33 31 31 31 30 30 33 34 35 37 39 39 35 34 35 35 36 37 36 36 36 36 39 43 45 43 39 43 45 41 43 47 41 36 36 35 33 33 32 33 33 34 33 32 32 33 33
35 33 34 34 34 34 35 36 38 40 41 40 39 39 39 42 44 44 41 41 42 42 42 43 44 44 44 43 42 42 41 40 39 39 38 37 35 34 34 34 33 33 32 32 32 31 32 34 35 34 36 38 39 36 34 36 36 35 36 36 35 36 38 41 43 44 43 42 43 44 43 45 45 38 35 36 36 36 37 36 35 35 35 34 33 34 35 35
36 35 34 34 34 34 34 35 36 38 41 42 41 41 40 40 41 41 40 41 42 42 43 45 46 44 44 44 44 45 44 42 41 40 38 37 37 36 35 35 33 33 33 33 33 33 33 34 34 33 34 37 39 37 35 35 36 36 36 36 36 38 40 42 43 41 40 41 43 43 44 46 42 36 35 37 37 38 38 38 38 38 38 38 38 38 38 38
37 36 35 34 34 35 35 35 36 37 39 41 42 42 42 42 42 40 39 41 42 42 42 45 46 44 43 45 46 47 45 44 44 43 40 39 39 37 37 36 34 33 34 34 33 33 33 33 32 31 33 36 39 38 36 34 34 36 37 38 40 41 41 41 40 39 39 41 42 41 43 44 39 34 35 37 37 38 38 39 39 38 39 40 40 40 40 39
39 38 36 36 35 35 35 35 36 38 40 41 42 43 43 43 42 40 39 39 41 42 42 42 43 43 43 46 47 47 48 47 46 44 42 41 41 39 38 37 36 34 34 33 32 32 32 32 32 32 32 36 39 38 36 34 34 36 40 42 43 43 40 39 39 41 42 41 40 41 43 44 39 35 37 38 37 37 39 39 38 38 38 39 41 41 41 40
Wind_Direction
206 206 206 206 206 206 207 207 208 208 209 210 211 212 213 214 214 215 214 214 214 214 213 213 213 213 214 215 214 215 214 210 209 209 208 210 212 212 212 212 213 214 211 208 205 206 209 212 213 209 205 208 212 212 212 215 215 219 220 218 224 225 231 227 220 229 243 263 247 238 234 224 260 259 259 274 285 289 278 272 270 269 264 263 271 275 263 235
208 208 208 208 208 209 209 209 210 211 212 213 214 215 215 215 216 216 216 216 215 215 214 214 214 215 216 216 217 218 215 212 210 211 211 213 214 214 213 213 213 214 210 207 205 203 205 212 214 209 207 210 215 215 213 219 217 218 220 221 229 227 232 230 219 226 248 267 238 231 241 238 252 246 249 271 284 291 281 277 277 276 270 265 269 266 250 235
209 209 210 210 210 211 211 212 212 213 214 215 216 216 216 217 217 218 217 217 217 216 216 215 215 216 217 217 219 219 215 214 214 215 213 214 215 213 212 211 211 210 207 206 205 204 205 208 209 208 209 210 216 216 215 223 222 221 220 224 235 231 237 238 225 229 247 261 236 231 246 251 258 247 248 264 278 285 272 271 271 268 266 262 262 256 245 240
210 211 211 211 212 212 213 214 214 215 216 216 217 217 217 218 218 219 219 218 218 217 216 216 216 217 218 219 220 218 215 215 218 216 215 215 214 211 210 208 208 208 206 205 205 205 205 205 207 209 209 213 221 218 218 228 224 223 221 226 235 232 239 239 231 238 247 253 242 235 246 257 257 249 248 248 270 284 268 261 259 263 266 264 261 253 246 243
212 212 212 213 213 214 215 215 216 217 217 218 218 218 218 218 219 219 220 219 219 218 217 217 217 218 219 220 219 218 214 216 219 216 215 216 212 209 208 206 207 206 205 206 207 206 207 208 208 211 212 217 224 220 222 228 219 222 230 230 230 231 240 241 238 243 244 250 247 236 244 253 253 254 250 236 253 270 265 265 265 271 274 270 264 256 253 249
213 213 214 214 215 215 216 217 218 219 219 219 219 219 219 219 220 220 220 220 219 218 217 217 217 219 221 220 218 216 213 217 220 215 215 214 210 208 205 205 206 204 205 208 210 209 210 212 210 213 215 218 222 218 220 228 221 222 234 234 231 235 243 245 247 246 243 245 241 239 247 254 254 261 258 245 251 259 266 275 277 282 282 274 268 259 257 252
214 214 215 215 216 217 217 218 219 219 220 220 220 220 219 220 220 220 220 220 219 218 217 217 218 220 222 219 217 217 217 221 219 213 214 211 208 208 204 205 205 206 209 209 212 210 210 212 209 210 212 215 219 216 220 228 224 220 229 235 234 240 248 250 251 248 247 247 246 249 253 256 255 261 269 259 258 261 268 277 281 286 286 279 272 263 259 254
214 215 215 216 217 218 218 219 220 220 220 220 220 220 220 220 220 221 220 220 219 217 217 218 219 221 220 218 217 220 222 222 218 213 213 209 207 207 205 207 208 209 211 211 213 211 211 212 209 211 214 216 215 216 223 223 226 227 228 235 235 243 252 252 252 251 253 255 254 253 254 259 259 264 273 265 262 266 270 278 280 281 281 278 273 267 264 259
214 215 216 217 218 219 219 220 220 220 220 220 220 220 220 220 220 221 220 219 218 217 218 218 220 221 219 217 216 220 224 222 217 214 213 209 208 207 207 211 212 212 213 216 217 213 214 215 214 216 214 215 212 217 225 221 228 230 227 234 237 247 256 251 251 256 257 257 255 254 260 266 265 270 273 266 266 270 272 276 280 277 274 274 275 272 267 264
215 216 216 217 217 218 219 220 220 220 220 220 220 220 220 220 220 220 219 219 218 217 218 218 221 220 218 219 217 220 224 221 217 215 213 210 209 209 211 214 215 214 215 219 219 215 215 215 215 214 211 214 213 219 227 223 225 228 228 233 240 251 255 250 249 254 257 256 255 254 261 267 267 271 270 268 273 276 272 274 278 276 274 276 278 277 273 269
216 216 216 217 217 218 218 219 220 220 220 220 220 220 220 220 220 220 219 219 218 218 219 219 220 219 219 219 217 220 223 220 218 216 212 211 210 213 216 218 217 216 216 218 219 218 215 212 212 215 218 219 217 222 228 224 225 231 232 235 253 260 255 256 252 253 257 256 256 255 262 269 268 265 262 267 277 278 272 273 279 278 277 279 279 280 278 274
216 217 217 217 217 218 218 219 220 220 220 220 220 220 220 220 220 220 219 219 220 219 219 219 220 219 220 221 220 221 222 220 218 215 213 212 212 215 218 220 219 216 216 217 219 220 215 214 213 218 222 218 219 226 226 227 229 235 236 238 256 264 257 260 259 258 258 256 257 258 267 269 260 256 261 270 275 277 276 275 279 278 279 280 280 280 279 276
216 217 217 218 218 218 218 219 220 220 220 220 220 220 220 220 220 220 220 220 221 221 221 221 221 220 220 222 223 223 223 222 219 216 215 214 214 217 219 220 219 217 217 215 218 219 217 218 216 215 218 217 222 225 223 231 235 238 243 241 251 262 259 259 261 261 255 255 261 259 265 267 261 259 263 273 274 274 276 275 277 278 279 281 280 280 279 277
217 217 217 218 219 219 219 220 220 220 221 221 221 221 221 220 220 221 221 221 222 222 223 222 221 221 221 223 225 224 224 223 220 217 218 217 216 218 221 220 218 219 219 216 218 219 218 219 215 214 220 221 221 223 230 241 240 239 244 246 248 250 254 260 260 255 250 256 261 257 262 267 268 268 269 276 274 270 272 274 277 278 279 280 280 280 279 278
217 217 217 218 219 220 220 220 221 221 221 221 222 222 222 222 222 222 221 222 222 223 223 222 223 222 223 226 226 225 224 223 221 220 220 218 217 219 222 220 218 220 220 218 219 219 219 220 220 221 224 225 222 226 237 243 244 243 242 248 252 246 254 264 259 250 252 259 259 255 263 269 270 271 274 279 275 270 271 274 277 278 279 280 281 281 280 279
218 218 218 218 219 220 220 221 222 222 222 222 223 223 223 223 223 223 223 223 223 223 223 223 224 222 224 227 226 225 226 224 223 222 221 219 219 219 220 219 220 222 221 222 222 222 224 224 224 224 224 226 227 229 237 243 246 248 242 243 248 248 255 263 259 257 259 260 260 259 262 268 271 272 277 280 278 276 276 277 278 277 279 280 281 282 282 281
219 219 219 219 219 220 221 222 222 223 223 223 223 223 223 223 224 223 223 222 222 223 223 224 225 224 226 227 226 227 227 226 225 223 223 221 220 219 219 221 223 224 224 225 225 226 228 227 226 229 230 231 232 231 236 242 245 248 247 245 247 248 252 259 261 263 264 260 261 263 263 265 270 274 277 278 278 279 279 279 279 279 280 280 281 282 281 281
221 220 220 220 220 220 221 222 223 223 224 224 224 223 223 223 224 223 222 222 223 223 225 225 224 226 229 228 226 228 227 227 226 224 223 222 220 220 221 224 224 225 226 228 229 229 229 230 229 231 235 237 235 231 232 238 239 239 241 244 249 251 252 258 261 262 264 264 263 266 267 268 271 275 276 276 275 277 278 279 280 281 281 281 281 281 281 280
223 222 221 221 221 221 222 223 223 224 224 225 224 223 223 224 224 223 224 224 223 224 227 227 224 226 229 228 227 228 227 226 226 225 224 223 222 222 223 225 225 225 226 228 231 231 229 231 231 230 233 235 233 230 231 234 233 232 237 241 245 251 257 258 261 264 265 266 267 265 267 269 272 274 276 276 276 276 278 280 281 281 281 281 282 282 281 280
224 224 223 222 222 222 223 224 224 224 224 224 223 222 223 223 224 227 227 226 225 224 226 227 226 226 228 228 228 227 227 227 227 226 225 224 222 222 225 228 228 229 228 228 231 233 230 230 231 231 231 231 232 231 230 233 234 234 240 246 247 252 261 261 263 270 267 266 269 267 269 272 272 273 274 276 278 278 278 279 280 280 281 281 281 281 280 279
226 225 225 224 224 223 224 224 225 225 225 224 223 223 224 223 224 227 227 228 228 226 227 228 227 228 229 229 228 226 227 228 228 227 225 225 224 224 228 229 228 231 234 231 231 234 232 230 233 233 231 231 231 229 229 235 240 243 243 249 255 255 261 263 265 272 270 267 271 273 274 273 273 274 274 275 278 278 276 277 278 279 280 281 281 281 281 281
227 226 225 225 225 225 225 225 226 226 226 225 224 225 225 225 225 227 227 229 231 229 229 230 229 230 230 230 230 228 228 229 229 229 227 226 226 227 229 229 228 230 234 232 231 236 236 235 237 232 228 231 235 233 232 237 242 248 248 252 258 259 264 267 269 274 272 268 273 278 277 274 275 275 275 274 274 275 276 275 277 278 279 281 281 282 283 283
227 227 227 226 226 226 226 226 227 227 227 226 225 225 226 227 227 229 229 230 233 232 230 230 231 231 231 232 231 228 228 229 229 229 228 226 227 229 227 228 230 230 233 232 230 233 236 239 239 230 226 230 239 238 236 240 246 249 249 251 258 261 264 267 270 274 273 271 275 279 278 275 275 275 276 275 274 276 277 276 277 278 278 279 281 283 283 281
226 226 227 227 226 226 226 227 228 229 228 228 227 227 227 228 228 230 231 232 234 233 231 231 231 231 231 232 230 228 229 230 229 229 227 225 226 229 229 228 230 232 233 233 231 233 237 238 236 231 231 231 235 239 237 240 248 252 250 250 256 259 260 263 270 274 275 277 279 281 280 277 275 276 278 281 281 280 279 279 279 278 277 280 283 283 282 280
227 226 227 227 226 226 225 228 230 231 230 229 229 228 227 228 229 231 232 235 237 235 233 232 232 232 231 231 230 229 231 232 231 230 227 225 225 229 232 231 232 233 234 233 233 237 240 237 233 234 238 236 235 240 240 240 247 255 254 250 253 256 258 265 273 278 278 279 280 282 279 275 277 279 278 282 286 284 282 281 280 279 280 282 283 283 282 281
228 227 226 227 226 225 225 228 230 231 231 231 230 228 228 228 230 232 232 237 239 235 232 231 232 232 230 230 229 228 234 236 233 231 228 227 228 230 233 234 236 236 234 233 236 240 239 238 237 235 236 238 239 244 245 243 247 256 256 252 253 257 259 264 269 273 274 274 277 278 273 274 279 280 278 281 283 284 286 284 281 281 283 283 283 284 285 284
230 228 227 227 225 224 227 229 229 229 231 232 231 228 228 228 229 232 233 240 241 234 231 232 232 231 230 230 227 227 234 235 232 231 230 229 231 233 234 235 237 237 235 235 240 242 238 238 240 237 237 239 241 246 247 243 247 255 257 255 253 255 258 261 264 267 270 274 276 273 270 275 278 278 281 283 283 286 288 285 283 283 284 285 286 287 288 287
232 229 228 227 226 226 228 229 228 230 231 232 231 228 227 227 229 231 231 237 239 232 230 233 232 232 232 230 228 229 234 234 232 233 232 231 233 235 236 235 234 236 236 235 240 244 240 237 238 236 239 241 242 247 245 241 249 256 256 255 254 255 258 262 265 267 273 278 275 269 269 275 276 277 283 285 285 287 286 283 284 285 287 289 291 292 292 290
231 231 229 226 225 227 229 229 229 230 231 231 230 227 225 226 228 230 231 234 236 233 233 232 231 233 232 230 231 233 235 236 235 234 233 232 233 236 237 236 234 235 238 239 240 244 244 241 239 237 240 242 245 250 246 243 250 253 252 256 260 262 264 266 266 267 273 276 271 265 266 274 277 277 279 284 285 284 284 285 286 287 289 291 294 295 294 291
231 231 229 226 226 227 228 230 230 230 230 230 229 225 223 226 228 228 232 235 235 236 235 232 232 232 229 228 234 236 236 238 237 233 234 235 236 238 237 236 236 237 241 244 242 243 245 245 243 241 242 242 243 249 250 247 247 247 251 258 262 266 267 267 268 269 271 272 269 264 264 270 277 277 275 279 281 282 285 288 289 289 289 291 295 296 294 289
231 231 229 226 227 228 228 230 229 228 228 228 227 223 222 229 231 229 233 236 237 238 236 234 234 232 228 229 234 235 235 238 236 233 235 237 237 238 236 236 238 239 243 245 245 246 246 245 246 245 244 243 245 249 253 250 247 248 253 256 259 265 268 268 269 268 265 268 270 270 269 268 268 273 277 280 282 284 285 286 288 289 288 290 294 294 292 288
232 231 229 227 227 228 229 230 227 225 225 225 225 225 226 230 231 231 234 236 238 238 235 235 236 233 231 233 235 234 234 237 237 235 236 236 236 237 237 237 236 239 243 243 244 247 246 245 247 247 245 243 243 247 250 252 251 251 252 252 256 264 267 267 266 264 262 265 269 271 271 268 266 272 277 280 282 282 280 280 284 286 285 288 291 291 289 286
234 232 230 228 227 228 229 229 226 224 225 223 224 228 228 229 230 231 232 232 236 238 236 236 237 234 232 233 236 235 235 237 236 237 238 236 236 238 241 240 237 239 242 241 242 245 247 249 246 244 246 243 241 243 246 249 250 248 249 248 250 256 260 262 264 266 266 267 268 268 269 270 273 277 276 273 275 277 278 281 282 283 283 285 288 289 287 284
235 234 232 229 228 228 227 227 225 224 225 222 223 227 227 228 231 231 231 232 235 238 240 238 236 234 233 235 238 236 236 238 236 237 238 235 235 238 240 240 239 240 242 242 243 241 244 249 244 242 246 243 242 244 245 247 248 249 250 248 248 249 252 258 260 261 265 269 269 267 267 269 272 278 276 273 277 281 283 283 284 283 282 283 287 287 284 281
236 235 233 231 230 228 226 225 224 224 224 221 224 226 224 227 231 230 231 233 234 237 240 239 235 233 235 238 240 237 236 239 237 237 238 237 237 238 238 238 237 238 239 240 244 243 243 249 248 248 248 241 242 247 246 246 248 250 250 248 250 251 252 257 259 258 264 271 269 265 265 268 271 277 278 277 282 285 285 285 284 282 280 282 285 283 279 277
236 235 234 233 231 229 226 225 224 224 222 221 226 228 226 230 231 230 232 233 232 233 235 238 236 234 235 237 238 237 237 238 237 237 239 240 241 240 239 240 237 236 237 239 243 243 244 250 251 251 250 245 245 248 246 245 246 247 247 246 250 252 251 255 260 263 265 267 267 266 268 273 276 277 277 278 282 285 285 285 283 280 280 283 283 280 276 274
237 236 235 234 232 230 227 225 224 223 221 223 228 229 230 234 233 231 233 233 232 231 232 236 237 235 235 236 236 236 236 238 237 237 238 240 242 240 239 242 239 236 238 240 243 244 243 248 251 249 248 248 248 246 247 248 245 244 246 248 250 252 253 253 257 264 265 264 267 267 268 273 275 276 280 282 281 282 283 283 281 280 282 283 282 278 274 272
237 237 237 235 233 230 227 226 224 223 223 227 230 230 231 232 232 231 231 231 231 231 232 235 236 236 236 236 237 235 235 236 235 236 238 239 241 239 237 241 241 237 238 240 244 245 243 247 251 249 247 249 249 244 245 249 247 244 246 248 248 249 252 252 253 258 261 262 267 269 271 271 269 272 279 280 277 278 280 281 280 281 281 282 282 277 272 271
237 237 237 236 233 229 227 226 225 224 226 229 231 231 231 231 232 231 229 229 231 232 232 234 234 236 236 235 237 236 235 235 234 235 237 237 241 240 236 238 241 239 236 236 240 244 243 245 249 249 248 248 247 243 242 245 247 246 247 248 249 250 250 250 251 254 258 260 265 270 273 271 269 272 275 275 275 277 277 278 278 278 279 280 280 275 269 265
236 235 235 235 232 228 226 225 226 227 229 231 231 231 232 232 232 231 229 230 232 232 233 234 234 235 235 235 237 236 236 237 236 237 238 238 240 243 239 238 240 240 237 236 239 243 242 243 246 249 249 245 243 245 244 243 244 245 245 245 247 250 251 253 254 254 255 258 262 267 271 270 271 274 273 273 275 274 273 276 279 281 279 278 275 269 262 258
235 234 235 234 230 226 224 225 228 230 232 232 232 232 232 232 232 232 230 231 234 234 234 234 233 234 234 235 236 235 235 236 236 237 240 239 240 242 241 238 237 239 239 238 239 241 241 243 244 245 246 245 247 250 249 246 245 245 245 246 246 246 247 252 256 255 254 258 259 263 269 271 271 273 273 273 275 274 275 277 282 282 278 275 272 262 255 255
233 233 235 234 229 225 225 229 231 232 233 232 232 233 233 233 233 232 231 232 235 236 235 235 234 234 235 235 235 234 233 235 235 235 239 239 238 240 241 238 234 232 235 240 242 242 242 243 243 244 246 247 249 251 249 249 248 248 248 249 249 247 245 247 253 256 256 258 261 264 268 270 271 271 272 274 275 277 279 280 282 279 271 269 267 256 254 260
234 233 234 233 229 225 227 232 232 232 234 233 232 234 234 234 234 233 232 232 234 235 235 236 235 235 236 237 236 235 235 236 236 235 237 239 239 240 240 238 235 233 236 242 244 243 241 242 243 246 249 251 252 251 250 250 249 248 248 248 248 248 248 248 252 255 256 256 259 263 266 268 271 271 272 275 275 276 279 279 277 273 267 267 263 257 261 266
235 234 234 234 230 227 230 233 232 233 234 234 233 234 234 235 234 233 233 233 233 235 236 236 236 236 238 237 237 236 236 237 238 237 238 240 241 240 237 234 234 236 239 243 243 241 240 241 242 244 249 251 251 250 249 248 248 248 249 249 248 248 249 251 253 256 259 257 255 258 263 266 272 274 273 274 275 276 278 275 270 266 266 267 266 265 268 270
236 235 235 234 231 230 233 235 235 235 234 234 235 235 235 236 234 233 233 234 234 235 236 236 236 236 237 238 238 238 236 237 240 240 239 241 243 243 238 234 233 237 241 245 244 241 242 243 240 240 244 247 247 247 248 248 249 250 251 250 249 247 246 249 253 253 256 257 254 255 261 267 271 274 272 272 273 275 273 268 263 262 264 267 270 271 270 268
235 235 235 234 233 233 233 235 235 236 235 234 236 235 235 236 236 234 233 235 234 234 236 237 236 235 236 237 238 239 238 238 240 240 240 241 242 244 241 236 234 237 240 243 242 240 244 246 242 240 243 246 249 251 251 250 249 250 250 249 248 248 246 248 251 251 253 257 258 257 260 266 268 268 269 270 270 269 269 265 263 262 264 268 271 271 268 266
235 236 234 234 234 233 233 233 232 234 235 235 236 236 235 236 237 236 234 235 234 233 236 238 236 235 235 235 237 239 238 239 239 240 241 241 243 246 243 240 239 238 239 241 241 240 244 246 244 244 246 249 252 253 251 249 248 248 249 248 248 248 247 246 248 251 254 257 259 259 260 264 266 265 265 267 266 266 267 265 263 264 268 271 271 269 266 265
235 237 235 234 235 234 234 233 231 233 235 235 236 237 236 235 236 236 236 236 235 233 235 237 235 235 235 235 237 239 239 239 239 240 241 242 243 246 245 244 244 242 240 242 243 242 244 246 246 247 249 251 253 253 249 250 252 251 249 247 246 246 245 245 248 252 252 252 258 262 261 261 264 265 262 262 263 263 264 262 263 266 270 271 270 267 265 266
235 237 237 236 236 236 235 234 232 233 233 234 235 236 236 236 236 236 236 237 237 235 235 237 236 235 236 236 237 239 238 238 239 240 241 242 242 243 245 246 246 244 241 243 246 245 245 247 248 248 250 252 253 251 249 250 253 254 251 249 247 246 245 247 250 252 253 253 258 263 262 262 264 265 261 260 261 262 263 264 266 268 269 268 268 267 266 267
235 237 237 237 237 237 237 235 234 234 234 233 234 234 234 236 237 237 237 237 238 237 236 237 238 237 237 238 238 239 239 239 240 241 241 242 243 243 244 245 246 246 244 244 246 246 245 248 249 249 251 253 253 252 250 250 252 253 253 251 250 249 248 249 251 254 254 255 258 261 263 265 266 263 261 261 261 262 264 264 265 266 265 266 267 267 267 269
235 236 236 236 238 237 237 236 235 235 235 234 234 235 235 235 236 237 238 238 238 239 239 239 240 240 239 239 239 240 240 240 241 242 242 242 244 244 245 246 245 246 246 245 246 245 244 247 250 250 251 252 253 253 251 251 253 254 253 252 250 251 252 252 253 255 254 254 257 259 260 264 266 264 262 262 261 261 262 261 262 263 263 263 265 266 267 268
234 236 236 236 238 237 236 236 234 235 236 235 235 236 236 237 236 236 238 238 236 238 240 240 241 242 241 240 241 242 242 242 243 245 244 244 245 245 245 245 244 243 243 245 246 245 243 246 248 248 250 253 253 254 252 251 251 251 251 251 250 251 253 255 256 255 254 255 256 257 259 264 267 266 264 264 262 261 261 260 260 262 262 262 263 264 265 266